Wind_Speed
2 3 6 8 7 6 7 7 6 5 5 9 9 10 8 9 11 8 8 8 4 6 6 4 5 4 6 9 10 12 12 10 9 7 5 3 3 2 8 7 13 21 21 21 24 30 30 30 30 30 30 31 34 35 37 39 39 39 39 38 37 37 36 36 35 35 35 32 30 33 34 33 33 32 30 28 26 23 22 21 20 19 19 19 20 21 23 22 21 21 21 21 22 21 20 19 18
2 3 6 8 8 8 5 5 7 6 7 9 9 11 8 6 9 11 13 10 4 2 3 6 7 8 10 12 13 13 13 12 12 10 8 6 5 2 9 9 15 20 21 22 25 28 27 30 32 31 31 32 34 36 38 39 40 40 39 39 38 38 37 36 36 35 34 32 31 34 34 33 33 31 29 27 25 23 22 21 20 20 20 20 21 23 24 22 20 20 20 20 20 20 20 19 18
2 3 6 9 8 7 3 4 8 7 8 8 8 9 7 7 9 9 8 6 5 5 6 9 9 9 11 13 13 12 11 10 12 9 8 13 12 1 10 10 15 18 20 21 25 27 25 30 34 32 33 33 35 37 39 40 41 40 39 39 39 38 37 37 35 34 33 30 31 34 35 34 32 30 28 26 24 23 22 22 21 21 22 22 24 24 23 20 19 18 18 18 17 18 18 17 16
3 4 7 9 7 6 4 5 7 8 8 8 7 4 5 7 6 3 2 4 7 7 8 8 8 8 9 13 11 10 9 8 10 8 7 9 10 4 6 11 16 17 19 20 24 25 23 32 35 34 35 35 36 37 39 40 41 40 39 38 38 38 37 36 34 33 31 30 31 34 35 33 31 29 27 26 25 24 23 23 22 23 24 24 25 23 21 19 17 17 17 16 16 16 16 15 14
4 6 8 8 5 3 5 6 6 8 8 7 5 3 3 3 1 0 3 5 6 6 7 7 7 6 7 10 8 7 8 8 8 7 7 8 14 8 2 9 16 17 19 20 24 23 24 33 36 36 36 36 37 38 39 39 40 39 39 38 38 37 36 35 33 32 30 30 32 34 34 33 30 29 27 26 26 25 24 24 23 24 26 25 23 22 20 18 17 16 16 16 15 16 15 14 14
5 8 8 7 3 1 5 6 6 9 7 5 5 4 4 2 2 1 3 5 5 6 6 5 6 6 7 7 5 7 6 8 8 11 12 14 16 9 5 9 13 16 18 20 23 21 25 35 37 36 37 37 38 38 39 39 40 39 38 38 37 36 34 33 31 30 29 29 32 34 34 32 30 28 28 27 26 25 24 24 24 26 26 24 21 20 19 17 16 15 15 15 15 15 14 14 13
6 7 6 7 3 2 7 8 8 8 2 2 4 2 2 1 0 3 4 4 4 3 2 3 4 6 7 4 4 5 5 10 9 12 14 16 16 10 8 10 11 16 18 21 22 20 28 36 37 37 37 37 38 38 39 39 39 38 38 37 36 34 32 30 29 27 26 28 32 34 33 31 30 29 28 27 26 25 25 25 25 26 25 22 21 20 18 17 16 15 15 15 14 14 13 13 12
7 5 3 6 4 4 8 8 8 5 2 1 3 1 2 2 3 4 5 5 2 1 1 1 2 6 5 3 5 2 7 10 11 13 15 16 15 12 9 10 11 17 19 21 21 22 31 37 36 36 36 36 36 37 37 38 38 37 37 36 35 33 30 28 27 25 25 29 32 33 32 31 30 29 29 28 26 25 25 26 26 25 23 22 21 20 18 17 15 15 14 14 13 12 12 11 11
8 5 2 5 6 6 7 8 7 4 2 2 2 2 2 2 3 4 6 5 2 3 2 3 3 5 4 5 8 1 6 11 13 13 13 14 13 12 9 10 12 17 20 21 21 24 31 36 36 36 36 35 36 36 36 37 37 36 36 35 34 32 29 26 25 25 26 28 31 32 31 30 30 30 29 28 26 26 25 26 26 24 23 22 21 19 17 16 15 15 14 13 12 11 10 10 10
6 4 3 5 6 6 7 8 5 3 3 2 2 2 2 1 3 3 6 5 1 3 2 5 4 5 8 7 6 2 6 12 14 12 12 13 11 9 8 10 11 16 20 21 22 25 29 32 35 36 36 35 36 35 35 35 34 33 32 31 31 30 28 26 25 26 27 28 30 30 30 30 30 30 29 28 27 26 26 26 26 24 23 21 19 18 17 16 15 14 13 12 11 10 9 9 9
4 3 3 4 6 7 7 6 4 2 3 2 4 3 2 1 3 4 5 5 1 4 2 4 4 4 8 6 3 4 8 13 14 14 13 12 8 5 6 9 11 15 19 22 23 26 28 29 32 35 35 34 34 34 34 33 32 31 30 28 29 29 28 27 26 27 29 29 30 29 29 30 30 30 29 28 27 26 27 26 25 24 22 20 18 17 17 16 15 14 12 11 9 8 7 7 7
4 4 3 5 6 5 4 3 2 1 3 4 5 4 1 2 4 4 5 5 3 4 2 5 5 6 8 3 3 4 10 14 14 14 13 10 6 1 5 8 10 15 19 22 24 27 29 29 30 33 34 33 33 33 33 31 30 31 30 29 29 29 29 29 28 28 29 31 31 29 29 30 30 30 30 28 27 27 26 26 25 23 21 19 18 17 16 15 14 13 11 10 8 7 6 6 6
4 2 5 5 3 3 2 3 1 2 3 4 3 4 0 3 2 4 5 6 6 4 4 6 6 5 5 4 3 5 12 14 13 13 12 9 3 1 5 8 12 17 20 22 24 28 30 30 29 30 32 32 32 32 32 31 29 30 30 30 29 29 29 29 30 30 30 31 31 30 29 28 29 30 29 29 27 26 26 25 24 22 20 19 17 16 15 14 13 12 10 9 8 7 6 6 6
3 2 5 3 1 3 3 3 1 3 3 4 3 2 2 4 2 6 6 8 5 3 6 5 6 7 4 5 4 6 12 13 12 12 12 8 2 3 7 11 15 20 21 23 25 28 30 30 29 29 31 31 30 30 30 31 31 31 30 29 29 29 29 30 31 31 30 30 30 30 29 28 28 28 29 28 27 26 25 24 23 21 19 18 17 15 14 13 12 11 10 9 8 7 6 6 6
3 2 4 3 2 4 3 2 1 3 1 6 3 2 4 4 4 6 5 7 5 5 6 2 4 7 5 7 7 9 12 12 11 10 11 8 1 6 10 14 19 22 24 25 27 30 31 31 29 29 30 29 28 27 27 29 32 32 30 30 30 30 30 29 30 31 31 30 29 29 28 28 28 28 28 28 27 25 24 23 22 20 19 17 16 15 14 13 12 11 9 9 8 7 7 6 5
2 2 4 4 3 3 3 2 2 4 0 4 2 2 6 5 4 7 3 6 7 4 5 3 4 5 6 8 9 11 11 10 10 8 7 5 2 9 12 15 19 21 23 25 27 30 31 30 30 30 28 28 27 26 25 26 30 32 32 31 30 30 28 28 29 30 29 28 28 28 28 28 26 27 28 27 26 24 23 22 21 20 19 17 16 14 13 12 11 10 8 8 7 7 7 6 4
3 3 4 3 3 2 2 1 2 2 3 1 1 2 7 6 5 4 3 6 8 6 4 3 3 3 6 7 9 11 8 8 8 7 4 3 2 10 12 14 16 17 19 21 23 26 29 30 29 29 28 28 27 26 26 26 28 31 32 32 30 29 27 27 27 28 28 27 27 27 27 26 25 25 24 25 25 23 22 21 21 21 19 17 16 14 12 11 10 8 7 7 6 7 7 5 3
4 3 4 2 1 0 2 2 3 5 6 6 5 4 6 7 6 3 4 7 5 7 4 2 2 1 4 5 7 8 5 6 7 6 3 1 2 7 10 10 11 13 12 10 15 16 20 27 29 28 28 29 27 25 25 26 29 29 29 30 29 29 28 27 27 27 27 25 25 24 23 21 21 22 21 23 24 22 22 21 21 21 19 17 15 13 12 10 9 7 7 6 6 6 6 3 1
3 1 3 0 1 2 2 4 4 4 6 7 7 5 5 6 5 4 6 6 4 7 4 3 4 4 5 5 6 6 3 4 6 4 3 1 3 7 11 10 10 15 17 17 19 14 13 18 24 27 27 27 26 23 23 25 28 27 27 27 26 28 28 28 28 27 26 24 23 20 18 17 17 18 19 21 21 21 22 21 21 20 18 16 15 13 11 9 8 7 6 5 6 5 3 1 1
2 2 2 3 2 1 1 2 3 4 6 7 6 5 5 4 4 4 5 7 6 6 3 6 7 7 9 7 7 6 3 3 5 4 4 2 4 9 13 13 13 17 23 26 26 21 18 12 13 22 25 24 23 22 22 25 27 25 25 25 24 26 25 25 25 24 25 24 20 18 17 17 16 16 19 21 21 22 22 22 21 20 18 16 14 12 10 9 7 6 5 5 4 2 1 1 1
1 2 2 5 2 2 2 1 3 4 5 7 7 5 5 3 3 4 5 7 5 2 7 9 9 9 9 9 8 6 4 4 6 6 6 4 3 7 12 15 12 12 15 19 22 24 25 15 9 15 19 21 20 20 22 24 24 23 23 23 24 25 23 22 22 22 24 23 20 18 19 19 16 15 19 21 20 19 19 20 19 17 16 14 14 10 9 8 6 5 4 4 3 1 1 1 2
1 2 3 3 2 3 3 3 3 5 6 6 7 5 6 5 3 2 5 6 3 6 10 10 10 8 8 8 8 6 4 5 7 7 8 7 5 6 10 12 9 9 8 13 21 22 24 22 16 13 12 16 18 19 21 22 23 23 23 23 24 24 22 21 21 21 22 23 21 19 21 22 18 16 20 19 17 17 17 17 16 15 14 13 13 10 9 8 7 6 4 3 3 2 1 1 1
3 4 1 1 2 5 4 4 4 4 6 6 6 5 5 6 3 2 5 8 6 8 10 10 8 7 6 5 5 6 4 5 7 6 8 8 7 8 9 11 9 9 9 12 19 20 23 27 23 17 11 11 16 18 19 20 22 23 22 23 23 22 21 20 20 20 20 21 19 20 24 23 19 18 19 17 16 17 17 16 15 15 14 13 13 11 9 8 7 5 4 3 3 2 1 1 1
4 2 1 2 2 6 5 5 5 4 7 7 6 6 5 6 3 3 6 6 8 10 8 8 7 5 4 3 4 5 5 6 7 7 6 8 8 8 8 9 8 8 11 14 17 19 26 29 25 21 14 10 13 16 18 19 20 22 22 22 23 22 22 20 20 19 19 19 18 19 22 21 18 18 20 19 17 16 16 16 14 14 14 13 12 11 10 9 7 5 4 3 3 2 2 1 1
3 3 3 3 3 4 4 4 4 3 6 5 5 8 6 3 5 6 6 9 10 9 6 6 7 5 4 7 7 6 7 7 8 6 5 7 9 9 8 7 6 6 9 16 21 23 27 30 28 24 18 14 12 12 16 18 19 20 21 22 22 22 21 19 19 19 18 18 17 18 19 18 18 18 19 19 18 17 15 14 14 14 13 12 12 11 10 9 7 6 5 4 3 2 2 1 1
4 5 4 4 4 2 3 4 3 3 3 2 6 9 3 2 4 5 5 11 8 6 5 5 9 8 8 9 11 10 9 8 7 7 6 6 8 9 8 6 6 7 8 13 20 25 27 29 29 25 22 20 16 13 13 15 19 20 20 21 21 21 20 19 19 19 18 18 17 17 18 17 17 17 18 18 18 18 15 14 14 13 13 12 12 11 10 9 8 6 5 4 3 2 2 2 1
4 6 5 4 4 1 3 5 3 4 2 0 6 7 2 2 4 3 8 9 6 4 4 8 11 11 10 11 12 12 11 11 10 10 9 7 7 9 8 6 5 6 9 9 10 19 28 29 26 23 23 22 21 18 14 12 15 19 19 19 19 20 20 19 19 18 18 18 17 18 18 18 17 16 17 17 17 18 17 16 15 13 13 12 12 11 10 9 8 6 5 4 3 1 1 1 1
4 7 6 3 2 1 3 4 2 4 2 1 6 7 3 3 1 7 9 6 3 2 6 11 12 11 11 12 12 11 11 12 12 12 11 9 8 9 9 8 6 4 7 6 6 13 23 27 25 23 23 21 22 22 18 15 14 16 19 19 18 19 19 19 18 18 18 17 17 18 18 19 17 16 19 18 15 17 18 17 16 14 14 13 13 10 10 10 9 7 7 6 4 1 1 1 1
4 6 7 3 3 2 1 3 2 4 1 2 7 8 5 4 8 9 7 4 2 4 8 11 12 11 10 11 11 10 11 13 14 13 12 11 9 9 9 8 7 5 4 4 7 11 17 23 24 23 23 22 21 20 21 19 16 16 17 18 18 18 19 19 18 18 18 17 17 17 18 18 17 16 22 23 18 14 15 17 16 16 14 13 15 14 13 12 10 9 8 7 5 3 3 2 2
6 4 5 4 5 2 3 3 2 4 1 3 8 5 3 9 11 10 8 5 4 6 9 10 10 11 10 10 10 10 12 13 14 14 14 13 11 10 9 9 8 6 4 3 7 12 16 22 24 22 23 22 21 21 20 20 20 20 19 18 19 19 18 18 18 18 18 18 18 18 17 18 17 15 19 24 22 15 12 14 15 16 15 15 19 20 17 13 10 10 9 8 6 5 5 4 3
6 4 4 4 3 1 3 3 3 3 2 2 8 5 4 10 11 9 8 6 6 9 11 11 10 10 10 10 10 10 12 13 15 16 16 15 14 11 10 10 8 6 5 2 5 11 14 18 22 22 23 24 23 23 23 22 23 23 23 19 19 20 18 17 17 17 17 18 18 19 19 18 17 15 16 19 19 15 12 12 13 14 15 18 20 20 18 13 11 11 10 9 8 7 6 4 3
3 4 3 3 3 3 2 3 2 4 2 1 6 5 3 10 10 9 8 7 8 10 11 12 11 11 10 10 10 10 10 13 16 18 18 17 16 14 12 11 9 6 5 3 0 7 11 11 15 16 18 23 23 22 24 24 23 23 23 21 19 21 19 16 16 16 17 17 18 19 20 19 18 16 16 16 15 15 14 13 12 12 13 16 17 19 19 14 13 12 11 10 9 8 8 6 4
1 3 4 3 4 4 1 4 4 4 4 1 4 4 3 8 8 8 8 8 9 10 11 12 11 12 10 9 9 9 10 12 15 18 21 19 18 18 15 14 12 9 6 4 2 2 6 5 7 8 11 17 19 19 20 21 21 21 21 22 21 19 18 16 15 15 15 16 17 18 19 20 18 16 16 17 16 14 15 15 13 14 15 14 14 18 19 15 14 13 11 10 9 9 8 7 6
3 3 4 4 5 5 3 1 4 3 4 2 3 2 4 7 7 8 8 8 9 10 11 11 11 10 10 9 10 9 10 11 12 15 19 19 19 20 18 17 17 15 11 7 5 4 3 4 3 5 8 12 14 16 17 17 18 20 22 24 22 18 17 15 14 14 15 16 17 17 19 20 19 18 16 17 19 17 15 15 15 17 20 15 12 15 17 15 15 15 12 11 10 9 8 7 6
6 5 5 4 5 6 5 3 3 3 5 4 1 3 5 6 8 8 8 9 10 10 9 9 10 10 10 10 10 10 10 11 11 13 16 17 19 20 19 19 19 19 16 11 7 7 8 7 2 4 8 11 12 14 16 16 18 21 24 24 21 18 18 16 15 14 15 16 17 17 18 20 19 19 17 16 18 19 18 17 17 18 20 17 12 13 15 15 16 16 14 12 11 10 8 7 6
8 6 5 5 5 5 4 4 4 3 6 3 1 1 4 5 7 7 8 9 10 10 9 8 9 9 10 9 9 10 10 10 11 12 15 15 17 18 18 18 19 19 18 16 11 8 11 13 6 4 8 10 12 15 16 18 20 23 25 25 22 21 19 17 16 15 15 16 18 18 18 20 19 19 19 17 16 18 18 18 19 18 18 18 14 14 15 14 16 19 16 14 13 10 9 8 7
7 6 5 5 5 4 4 3 2 1 5 0 1 3 3 4 5 7 7 8 10 10 10 10 9 9 9 10 11 11 10 9 10 12 13 14 15 17 16 17 19 19 19 19 16 10 14 18 14 7 8 10 14 17 19 22 25 27 27 25 23 21 18 16 16 17 16 17 18 19 19 19 19 19 20 19 18 17 16 17 19 19 18 19 17 15 15 12 14 19 17 15 14 12 10 10 9
7 5 5 5 4 5 5 2 4 1 4 1 3 3 4 5 5 7 6 8 10 10 11 10 11 10 9 11 12 11 9 8 9 11 12 13 14 15 15 16 18 18 17 17 18 15 14 19 18 13 9 10 14 18 22 24 27 28 25 21 19 17 16 16 16 17 18 18 18 19 19 20 20 20 20 20 19 18 16 15 19 21 20 20 19 16 14 12 12 16 17 15 14 13 11 11 12
6 4 5 5 5 6 1 6 4 1 4 2 4 4 4 5 5 7 7 8 9 9 10 10 10 10 10 11 11 11 11 11 10 10 12 13 13 14 13 14 15 15 15 14 15 16 14 14 18 17 13 11 14 17 19 21 22 24 21 17 15 14 14 15 15 16 17 19 19 19 19 20 21 21 21 20 19 19 17 15 17 21 21 22 23 18 14 14 13 14 17 16 14 13 11 12 13
4 3 5 5 7 7 1 4 1 1 2 3 3 4 4 5 5 6 7 7 7 8 9 9 9 9 10 11 11 12 13 13 12 11 11 12 13 13 12 13 14 13 13 14 14 14 13 13 14 17 16 15 16 15 17 20 20 20 20 17 15 13 13 13 14 16 17 19 20 20 20 20 21 22 21 20 19 18 19 17 15 19 21 21 25 22 16 16 16 15 17 16 16 15 12 11 13
3 2 5 8 8 8 5 2 2 1 2 3 4 4 4 6 6 5 5 6 6 6 7 9 9 9 8 9 10 12 13 13 13 13 12 12 12 12 11 11 11 11 12 13 13 12 12 13 13 14 15 15 17 16 16 18 20 21 20 16 15 15 14 14 16 17 18 19 20 21 21 21 21 21 22 22 21 19 19 20 17 18 21 19 21 23 19 17 17 17 17 17 17 17 14 12 12
3 1 5 10 10 7 6 4 4 3 3 3 4 3 4 6 6 5 5 4 5 4 6 8 9 9 9 9 10 10 11 12 12 13 12 12 12 12 12 11 10 10 11 12 12 12 12 12 13 13 14 13 15 17 17 16 18 21 21 18 16 17 17 16 18 18 19 20 20 20 20 21 21 21 22 22 22 22 20 21 20 19 21 19 17 21 20 18 17 18 19 18 18 18 16 14 13
2 3 8 11 9 7 5 4 4 3 2 3 5 4 2 5 5 6 5 4 4 3 5 8 8 9 9 9 9 9 10 10 11 13 14 12 12 13 13 12 11 10 10 11 11 11 11 11 11 12 12 12 13 14 17 16 16 20 24 24 21 20 19 18 18 18 18 18 18 19 19 20 21 22 23 23 23 24 22 22 21 19 20 19 16 18 21 21 18 17 18 18 18 18 17 16 15
2 5 10 11 7 5 5 4 4 1 2 4 3 3 3 3 4 7 6 4 3 2 5 7 8 9 10 10 10 10 9 9 10 12 14 14 13 13 13 13 12 12 11 11 11 11 11 11 10 10 10 11 11 12 14 16 14 17 24 26 23 22 22 19 19 19 18 17 17 18 19 20 21 22 23 24 24 24 24 23 22 21 20 18 16 17 20 21 20 17 16 16 17 17 18 16 16
4 8 10 8 6 5 5 4 2 1 1 3 1 3 4 1 5 5 5 5 3 1 4 7 8 9 10 10 10 10 9 8 9 10 12 14 16 15 14 14 13 12 12 11 12 12 11 11 11 10 10 10 10 11 14 15 15 15 19 23 22 21 23 22 20 19 18 18 17 18 19 19 20 21 21 23 24 24 25 25 23 22 21 19 18 17 18 19 21 20 17 16 16 16 17 16 15
6 10 9 5 5 5 5 4 1 1 3 1 4 3 4 1 5 4 5 4 1 2 3 6 7 8 9 9 10 10 9 8 8 9 10 13 16 18 16 15 14 13 12 12 12 12 12 12 12 11 11 10 10 11 12 14 16 16 17 21 22 20 24 24 22 20 18 18 19 18 19 19 19 19 20 21 23 23 25 26 25 23 23 21 19 18 17 18 20 21 20 18 17 15 16 17 15
8 9 6 5 5 4 4 3 1 3 2 3 4 2 3 0 3 2 2 2 2 3 3 5 7 8 9 9 9 9 9 8 8 8 10 12 15 17 18 17 16 14 13 12 12 12 13 13 12 12 11 11 11 10 11 12 14 16 18 21 24 24 26 26 25 23 19 17 19 19 19 20 20 20 20 21 23 24 23 25 26 24 22 22 21 19 18 18 18 20 20 19 19 17 16 16 16
8 8 5 5 5 4 4 3 3 5 1 4 4 1 3 2 2 3 5 5 4 4 5 7 9 10 9 9 9 9 9 9 9 8 9 11 13 16 18 19 18 16 14 13 13 13 14 14 13 14 13 12 11 11 10 11 12 14 17 19 23 25 25 25 26 25 21 19 20 21 20 20 20 21 21 21 22 24 24 25 27 25 23 22 21 20 19 19 17 18 19 19 20 19 17 16 17
6 6 5 6 4 3 5 4 3 4 2 4 2 1 4 1 5 5 7 6 4 4 5 7 9 10 10 10 9 8 9 9 9 8 9 9 11 15 18 20 20 18 16 15 14 14 13 14 14 15 15 14 13 12 11 11 11 13 16 17 20 22 24 26 26 26 25 24 22 21 21 21 21 21 22 21 21 23 25 26 27 27 25 23 21 20 20 20 18 17 18 19 19 19 19 18 18
5 4 4 5 3 3 5 4 3 3 3 3 1 1 3 0 4 5 7 6 3 3 4 6 8 9 10 10 10 9 10 10 9 9 9 9 11 16 18 19 20 21 20 18 15 14 14 14 14 15 16 15 15 14 13 12 11 13 15 17 18 20 23 26 26 27 28 26 24 23 23 22 21 21 22 22 21 22 25 27 27 27 27 25 21 20 19 18 19 18 18 18 18 18 19 19 19
5 4 5 5 3 3 5 4 4 4 2 0 3 2 4 3 3 4 6 4 2 1 3 6 8 9 10 11 11 12 12 11 10 10 10 11 14 17 18 18 20 21 22 21 19 16 16 16 15 16 17 17 16 16 15 14 12 12 14 16 18 19 22 24 26 27 28 27 25 24 25 24 22 22 22 21 22 22 23 25 25 26 26 25 21 19 17 17 19 19 18 18 18 18 18 19 19
2 4 5 3 4 4 4 3 4 5 4 1 2 2 3 3 5 6 4 3 2 2 6 8 10 11 12 12 12 12 12 12 12 11 12 13 15 17 17 18 20 21 22 22 21 20 18 17 17 17 18 18 17 17 16 16 14 13 14 16 18 19 20 22 24 26 27 27 26 25 27 26 23 22 21 20 21 21 21 23 24 26 26 26 23 21 19 18 20 20 19 18 18 18 18 19 19
2 3 3 3 4 6 4 1 1 2 4 1 0 3 2 3 5 6 4 0 3 6 9 10 12 13 13 12 11 12 12 13 14 13 13 15 17 18 18 19 20 21 23 23 23 23 21 20 19 18 18 18 18 17 17 17 16 15 15 16 18 20 21 22 24 25 25 27 27 27 28 27 24 22 20 19 19 20 22 23 25 28 30 30 28 25 24 22 21 21 21 20 19 18 19 19 19
4 2 3 3 3 3 3 3 1 3 5 2 2 5 4 2 1 3 1 5 7 9 11 12 13 14 13 12 12 13 14 14 15 15 15 15 18 20 20 21 21 22 23 23 22 22 22 22 20 20 20 20 19 18 17 17 16 16 16 16 18 20 22 23 24 25 25 26 27 28 28 28 27 24 21 20 18 19 22 23 26 28 31 32 29 26 26 25 24 22 21 21 20 20 20 20 20
4 3 2 3 3 1 2 3 3 5 5 4 4 5 5 3 3 4 6 8 10 11 13 14 14 14 13 12 13 15 15 14 14 14 14 14 17 20 22 23 24 23 22 22 22 21 22 22 22 23 23 22 21 19 18 18 17 17 16 17 17 19 22 24 25 25 26 27 28 28 28 29 28 26 23 22 20 20 21 23 25 26 27 30 30 28 28 27 26 24 23 21 21 21 22 22 21
1 1 1 1 3 4 3 3 4 5 5 5 6 6 4 3 5 6 8 10 12 13 14 14 15 14 13 13 14 15 15 14 14 14 14 14 18 21 23 24 25 24 23 22 22 22 22 23 23 23 24 24 23 21 20 20 19 18 18 18 18 19 21 23 25 26 27 29 29 29 29 29 29 27 25 24 23 21 20 21 24 25 26 28 30 31 31 30 27 25 24 22 21 22 24 23 22
2 1 1 2 1 1 2 2 2 3 5 5 6 7 5 5 6 6 9 11 12 14 15 15 15 15 15 15 15 15 15 15 14 14 14 15 19 22 22 23 24 25 24 24 23 23 23 23 23 23 24 25 24 23 22 21 20 19 20 20 20 20 21 22 24 27 29 29 29 29 29 29 29 28 26 24 24 23 21 20 21 24 25 26 29 31 30 31 29 26 24 24 23 24 25 24 23
4 3 3 4 3 3 4 1 1 2 4 4 6 8 4 5 4 5 10 12 13 15 17 16 16 17 16 15 16 16 15 15 14 14 14 15 18 21 22 22 23 24 24 25 25 25 24 24 23 23 24 25 25 24 23 22 21 20 20 21 21 21 22 23 24 26 29 30 30 29 30 29 29 28 27 25 25 23 22 21 21 23 25 26 29 30 28 29 29 27 25 24 25 26 26 25 24
Wind_Direction
260 236 211 199 200 202 200 210 227 207 224 248 241 249 235 215 240 246 237 233 239 234 229 259 263 270 262 273 287 294 305 297 288 279 302 59 71 94 149 147 151 155 154 157 161 167 170 172 174 173 174 174 173 170 168 166 164 162 162 161 160 159 157 157 155 154 152 151 150 150 148 146 147 148 149 149 150 150 146 140 135 135 136 135 131 127 123 120 118 115 113 111 108 105 103 101 100
289 224 196 194 197 208 195 201 240 218 216 244 236 243 236 199 222 235 245 244 249 252 226 259 263 263 263 272 282 285 280 267 267 273 299 307 303 137 143 148 156 158 156 156 160 163 167 171 173 173 173 174 173 169 167 165 163 163 162 160 159 158 158 157 156 155 153 152 151 151 150 147 147 149 150 150 151 149 144 140 138 138 137 133 131 128 123 121 119 117 115 114 111 107 105 102 100
237 201 183 188 195 221 214 196 239 239 227 243 242 229 209 210 229 239 252 251 268 284 269 269 271 269 266 258 257 264 269 276 271 276 287 281 294 162 138 147 158 157 156 157 160 162 164 170 172 171 172 173 173 171 168 166 165 164 162 161 160 159 159 158 157 156 154 153 152 152 151 149 149 150 150 151 151 147 144 142 140 139 135 134 132 128 124 122 120 118 117 116 114 111 109 106 103
181 195 189 190 191 221 220 209 233 247 241 246 251 197 179 229 245 251 252 257 267 271 269 274 274 271 272 266 269 270 270 287 275 284 276 278 336 23 142 151 158 157 159 159 162 162 164 170 171 170 171 172 172 172 170 168 165 164 162 162 161 160 160 159 159 157 155 154 153 153 152 151 150 150 150 150 149 147 146 143 141 138 136 135 132 129 126 125 120 117 116 116 117 115 113 111 108
184 192 196 209 206 213 223 225 232 243 245 253 259 105 125 225 183 245 243 248 258 260 265 270 272 273 267 269 286 279 273 290 290 330 314 322 9 2 217 162 160 162 163 162 164 163 165 170 170 169 171 172 173 172 170 168 165 164 162 161 161 160 160 160 160 159 156 154 153 153 153 153 152 151 150 150 149 149 146 142 141 138 137 135 132 130 128 127 123 120 119 120 120 117 116 115 110
184 178 192 228 253 291 237 229 230 237 242 268 273 93 94 102 117 256 253 245 254 260 269 271 281 290 271 268 274 268 298 324 323 357 340 326 349 339 242 186 168 166 165 163 166 163 167 170 169 170 170 171 172 172 170 168 165 163 162 161 161 160 161 161 161 159 155 153 154 154 154 155 153 151 150 150 150 149 145 142 141 139 137 135 134 132 131 130 128 125 123 122 120 118 118 116 112
192 179 184 217 224 231 237 235 239 238 198 265 276 70 90 110 213 259 262 257 240 231 254 274 299 290 276 301 268 237 18 8 338 336 326 313 325 315 240 204 177 169 165 164 167 163 168 169 168 169 168 170 172 171 169 166 163 161 161 161 160 161 163 163 160 156 154 154 154 154 155 155 154 152 151 151 151 148 144 143 142 141 139 137 138 136 135 135 131 128 123 121 119 118 118 116 114
209 209 191 217 206 202 235 240 243 247 106 122 256 310 324 304 289 271 273 273 264 262 234 263 323 275 273 340 282 162 57 15 344 325 319 310 313 306 250 211 186 172 166 165 166 164 170 170 167 168 166 168 169 167 164 162 161 160 161 162 163 164 165 163 158 155 154 155 155 156 156 155 154 153 152 152 150 148 146 144 144 143 142 142 142 141 140 136 132 128 123 120 119 120 120 119 115
206 222 207 228 228 211 235 239 235 244 191 178 200 209 281 288 282 270 272 263 280 298 288 341 319 270 312 323 282 333 40 6 348 328 323 314 312 304 254 212 197 178 168 166 164 162 168 169 166 166 165 165 165 163 161 161 163 163 164 164 165 166 165 162 158 155 154 156 157 157 156 156 156 154 152 152 150 148 147 145 145 146 144 145 145 144 141 135 132 129 125 121 121 123 124 122 116
200 225 231 229 242 229 233 235 221 222 197 197 206 214 235 250 268 248 267 262 294 294 332 343 270 270 320 307 289 359 11 1 351 338 337 322 317 304 247 212 212 189 171 164 162 159 163 165 165 164 163 164 164 163 163 163 164 165 165 164 165 166 164 161 159 157 156 157 157 157 157 157 156 154 153 153 151 149 147 145 146 147 147 147 146 143 138 135 134 130 126 123 123 126 127 122 116
205 203 245 235 238 238 240 234 206 187 159 194 221 210 217 239 258 237 257 256 282 287 340 334 276 314 308 287 326 11 9 4 358 347 340 328 329 311 232 210 212 193 176 165 161 160 160 162 163 162 162 164 164 164 164 165 165 165 165 165 165 165 164 162 161 160 159 158 157 158 159 158 156 154 154 154 153 150 148 145 146 147 148 148 145 141 138 137 135 130 126 125 126 127 127 122 116
230 178 218 237 240 245 265 264 220 186 179 215 203 157 174 228 238 254 270 267 279 275 0 357 332 329 299 300 346 354 13 11 3 349 338 336 348 318 207 202 195 180 175 167 163 161 159 161 164 163 163 165 165 164 164 165 166 166 167 167 168 168 168 164 162 161 160 159 159 160 160 159 157 156 155 155 155 152 148 146 147 148 147 146 143 141 141 139 135 130 128 128 129 129 128 122 117
246 195 220 235 263 271 294 286 269 283 230 208 169 119 312 245 248 312 299 282 272 274 357 7 342 310 304 339 328 353 14 14 3 351 343 338 6 117 181 180 175 169 168 168 165 161 157 161 164 163 165 166 166 166 165 166 166 166 166 167 168 168 167 164 162 163 162 161 161 161 161 159 158 157 156 157 157 154 151 149 148 149 147 146 145 144 143 141 136 131 131 131 131 131 127 122 116
246 223 248 243 243 256 266 271 241 260 232 123 112 90 312 261 311 328 303 281 271 345 347 350 334 303 317 345 326 4 7 6 1 358 350 336 30 134 163 162 163 161 164 168 165 160 158 161 161 163 167 167 167 167 166 167 168 167 167 166 167 166 165 163 163 165 164 162 161 161 162 161 160 159 158 159 159 158 155 152 151 151 149 148 146 145 144 140 134 131 134 135 134 130 125 120 108
256 215 254 251 216 229 212 255 290 266 211 108 102 12 300 275 314 305 306 301 300 4 329 304 342 311 334 347 342 0 357 358 354 355 354 342 85 153 159 159 163 162 168 170 166 162 159 159 159 160 165 166 165 166 165 167 169 168 167 165 165 167 166 165 164 165 164 163 162 161 162 162 161 160 160 161 162 161 159 156 154 153 152 150 149 147 146 141 135 136 138 137 134 128 123 119 105
262 230 239 242 225 225 177 201 227 246 121 103 105 332 283 285 305 292 327 315 296 328 318 330 12 337 341 353 352 353 355 357 348 349 353 351 111 152 156 159 164 166 171 170 167 164 159 157 157 156 160 165 163 163 164 165 169 169 168 166 165 167 166 166 165 165 163 162 162 162 163 162 162 163 163 164 165 163 161 160 157 156 155 153 152 150 148 144 140 140 139 136 132 128 124 121 118
243 235 236 230 216 227 142 170 223 295 338 331 305 292 283 295 287 288 321 276 277 298 303 317 344 333 331 5 4 348 355 358 353 353 348 338 147 150 153 159 161 167 169 168 167 162 159 157 155 154 159 164 162 162 163 164 169 167 166 167 166 166 165 166 165 164 163 163 164 164 163 161 162 164 163 165 166 165 165 164 159 158 158 156 155 154 152 148 145 143 136 133 131 133 127 123 121
242 228 241 230 206 28 44 321 324 327 310 296 309 317 302 300 289 332 298 247 249 281 271 276 280 305 330 37 16 348 359 353 359 357 359 317 228 153 147 153 155 158 153 163 170 163 160 157 153 153 158 161 160 161 161 165 170 166 163 163 164 165 167 169 168 165 162 163 164 162 159 159 162 162 164 168 167 168 170 167 163 161 162 161 159 157 158 153 149 142 132 133 137 137 124 121 123
259 244 250 210 23 21 19 317 329 317 309 307 311 332 315 301 311 340 294 270 273 276 273 316 311 346 354 66 44 5 20 351 6 7 32 105 198 153 144 140 140 150 149 155 165 168 161 156 153 152 156 158 157 158 159 165 168 165 162 160 161 165 167 169 167 165 163 162 162 161 161 162 164 163 166 168 168 170 172 171 168 167 166 165 164 163 163 159 152 144 135 135 136 135 126 143 175
270 273 255 82 16 328 102 307 336 319 322 312 314 350 314 308 330 317 302 294 269 269 334 339 328 342 346 38 46 25 50 33 43 56 52 67 169 163 159 150 152 158 159 157 155 157 152 152 160 151 153 155 155 158 158 162 165 163 161 160 161 162 164 165 163 163 164 163 162 165 168 167 165 164 166 169 171 172 174 176 174 172 171 171 168 166 168 165 156 151 144 136 131 135 148 145 39
227 293 347 66 334 270 108 332 348 335 322 312 315 326 307 346 338 301 316 291 252 326 7 349 336 338 339 6 24 32 53 69 80 72 60 71 154 166 158 147 148 153 159 153 140 145 146 147 162 149 149 153 154 159 160 162 163 161 162 165 164 162 164 163 160 162 164 166 169 169 170 170 167 165 170 173 172 170 174 178 178 176 175 177 172 166 173 171 166 169 164 155 153 156 132 67 0
211 79 19 42 302 304 41 355 354 338 311 300 302 312 333 343 294 313 337 303 327 13 3 350 338 336 339 353 359 20 56 84 88 70 62 78 115 140 144 131 119 122 130 130 132 140 141 140 147 152 159 157 156 163 163 163 163 163 167 171 168 166 168 167 165 166 167 170 172 172 173 173 169 168 171 176 177 173 175 178 180 181 178 180 176 172 174 171 174 178 173 167 163 164 128 57 0
267 107 82 302 311 304 325 331 331 321 298 294 306 329 336 300 282 43 319 300 346 4 360 349 338 332 333 359 -0 14 59 85 88 87 66 59 93 131 143 132 119 120 111 114 132 140 138 139 145 156 178 175 165 168 166 164 165 166 171 173 170 170 172 172 172 170 170 172 172 175 178 174 171 171 170 178 185 180 179 180 182 183 182 181 178 178 176 172 177 177 172 170 167 171 160 105 21
293 86 58 311 292 286 305 316 310 300 288 291 303 303 281 278 322 353 295 312 356 356 356 343 342 342 338 48 37 31 73 83 84 93 69 41 58 97 127 137 139 134 130 138 145 149 146 144 148 159 175 192 183 176 170 168 169 171 172 173 172 174 175 175 176 173 172 173 175 176 177 175 174 174 172 177 185 185 185 183 182 183 184 183 180 180 178 176 177 176 172 169 173 180 161 128 20
349 1 357 321 281 290 317 300 292 286 279 283 275 275 275 307 323 295 317 2 2 346 342 344 6 27 38 57 45 54 86 80 81 85 64 47 52 70 93 120 142 144 153 161 156 156 152 148 154 164 171 185 203 199 181 174 174 176 175 174 175 175 177 178 177 174 172 176 179 177 176 176 179 179 179 180 182 187 191 187 185 184 184 185 182 183 180 177 176 177 177 174 177 180 159 110 33
17 334 330 318 310 331 330 297 307 295 276 300 272 270 291 47 285 268 28 14 348 326 331 25 45 52 61 62 48 54 72 59 67 77 65 64 61 71 84 96 135 162 187 178 160 156 155 151 157 168 178 184 197 205 199 187 180 181 181 178 177 177 180 179 177 175 174 178 181 181 179 178 180 181 182 183 182 184 189 192 189 185 185 184 182 184 181 175 174 177 177 177 178 175 155 88 37
341 316 308 306 318 321 296 307 340 296 262 7 285 284 345 115 256 305 34 5 325 318 7 60 67 63 64 69 59 51 57 49 50 53 47 51 52 60 72 75 106 155 178 176 163 161 160 156 156 168 180 182 184 189 206 215 194 186 186 184 181 181 181 178 177 177 177 180 182 184 184 183 183 181 181 184 185 185 188 194 194 192 190 188 186 184 181 176 171 175 176 173 165 155 168 113 71
311 309 285 237 270 226 266 304 352 294 254 94 289 282 253 185 21 3 13 355 332 21 51 68 70 70 68 70 65 52 51 47 43 39 30 32 36 40 48 53 68 120 155 165 168 172 167 156 154 168 176 178 183 186 196 218 222 204 192 188 187 184 182 180 180 181 181 182 184 186 187 189 186 184 185 183 184 187 189 193 196 198 196 194 192 185 183 181 173 180 190 183 166 147 186 155 124
291 291 281 242 219 199 356 337 351 290 313 30 289 264 215 118 57 25 15 14 46 66 66 70 70 68 66 68 66 56 52 47 42 34 22 22 29 37 39 38 40 65 119 172 177 182 175 155 155 173 180 182 188 190 193 204 222 225 208 194 189 187 184 183 185 185 185 184 184 187 190 192 190 189 191 190 187 184 190 192 195 199 199 198 198 195 194 190 182 185 194 186 169 172 191 186 171
273 259 281 281 235 202 46 19 314 276 14 357 286 260 128 78 56 36 24 23 55 70 65 65 73 70 62 64 63 57 51 45 43 32 22 19 24 37 37 37 34 38 74 159 184 190 182 160 161 177 183 187 192 196 199 204 215 230 231 208 188 188 187 187 189 188 187 187 186 187 191 195 194 191 193 196 193 186 189 193 195 197 197 203 206 206 203 197 190 183 185 180 168 185 195 192 186
287 279 266 274 266 296 62 44 319 295 67 329 277 263 86 65 54 43 30 30 55 66 63 58 64 70 65 63 59 56 49 42 41 32 24 19 20 29 31 37 42 43 61 93 197 203 197 171 167 177 184 191 197 199 201 208 214 229 243 228 197 188 187 188 190 190 192 191 190 190 192 195 196 194 193 196 195 192 195 196 199 196 197 206 207 208 204 196 194 187 185 182 171 187 194 187 178
297 294 266 267 301 319 86 99 15 342 13 300 281 267 96 66 52 48 42 48 62 64 64 59 57 61 61 62 58 54 48 38 36 29 20 16 15 19 21 28 41 65 94 95 206 217 216 188 169 178 189 193 199 201 205 213 216 226 240 237 215 195 185 187 188 192 196 195 195 193 193 195 196 195 193 194 193 195 201 203 203 197 198 203 203 207 203 193 193 190 186 185 176 187 192 186 181
300 305 305 318 313 315 9 112 83 353 300 242 297 290 94 75 60 59 54 57 66 65 62 59 57 57 55 56 54 50 45 35 30 24 16 12 11 9 12 17 22 42 78 90 39 271 249 235 178 184 206 204 203 206 211 216 217 224 231 233 228 208 191 189 188 191 197 199 200 197 196 198 197 195 193 193 192 194 201 206 206 205 203 199 201 206 202 194 192 188 186 186 179 188 195 187 183
338 317 310 315 315 306 299 65 77 347 297 275 320 346 90 91 82 72 65 66 68 66 61 59 58 56 54 51 48 45 41 34 27 20 13 9 7 5 7 9 11 17 25 33 21 14 338 294 209 184 227 229 220 217 219 221 222 228 230 230 228 214 201 197 191 191 198 202 204 202 199 200 201 199 197 196 198 197 199 204 206 212 210 201 202 206 202 196 191 188 187 183 180 187 196 190 184
327 327 319 314 314 297 294 339 18 338 289 273 325 97 114 109 98 82 73 72 71 69 60 58 58 54 53 50 46 41 37 36 28 18 13 10 7 4 3 7 9 9 8 8 0 9 11 346 281 207 234 237 232 224 222 227 233 234 230 228 224 213 205 199 195 196 199 202 206 206 203 203 203 202 201 200 203 205 205 208 210 216 213 203 204 207 204 197 188 187 185 181 180 180 184 185 181
320 316 307 308 312 305 320 341 7 339 287 267 85 158 155 125 106 93 83 76 73 73 63 55 54 49 47 45 45 41 36 36 27 18 16 13 10 6 2 4 7 9 8 2 348 331 341 352 354 263 253 242 232 226 222 224 230 232 228 225 220 215 207 198 197 200 201 203 206 207 205 205 205 205 206 205 206 208 208 212 216 218 213 204 203 205 207 200 191 189 184 184 181 173 179 185 181
304 291 285 298 302 307 343 349 100 351 299 302 124 229 167 129 108 97 87 77 71 67 62 54 47 44 41 37 37 37 36 36 28 22 21 17 13 9 5 3 4 8 11 6 359 332 309 330 352 335 280 255 231 219 217 217 218 222 223 222 220 218 212 204 203 204 205 207 206 208 207 206 207 207 208 209 209 207 204 209 215 214 208 205 203 203 208 205 197 192 183 181 181 176 182 184 178
284 282 291 301 312 329 356 77 136 355 309 151 167 210 153 135 113 98 87 73 65 58 57 51 43 41 36 31 29 27 28 32 30 25 22 22 18 11 8 6 3 3 7 7 5 356 316 310 331 336 302 267 243 222 214 215 217 219 220 222 222 219 214 213 213 211 212 213 209 208 210 209 208 208 209 211 213 210 206 205 211 211 205 205 206 204 204 203 198 193 183 177 181 184 183 180 177
269 281 301 314 347 339 29 142 149 307 298 225 182 199 166 143 119 102 89 78 70 59 57 52 44 40 31 27 22 16 14 14 21 24 20 19 19 16 12 7 4 358 359 4 1 360 346 319 318 320 307 278 262 247 231 225 224 225 226 226 225 220 216 216 216 217 217 217 214 211 212 212 210 211 211 213 214 214 214 211 213 213 206 207 211 208 203 202 197 194 191 181 179 183 182 178 181
263 303 322 334 354 333 256 141 96 341 288 269 211 196 175 161 150 116 94 91 93 81 71 64 54 47 36 28 19 12 10 4 4 13 16 14 14 17 15 6 1 355 353 359 356 352 351 340 326 317 309 287 271 269 258 247 239 235 236 236 232 227 222 219 216 218 219 218 218 216 215 214 213 213 213 214 216 216 218 218 218 216 208 206 210 210 207 204 200 199 200 190 178 177 177 176 183
275 318 336 336 339 324 304 318 330 180 183 237 227 202 179 189 187 147 120 114 106 92 78 71 61 56 47 36 26 15 9 1 354 359 5 8 10 11 13 6 358 353 350 349 348 344 337 335 333 325 317 297 275 268 268 260 248 242 243 240 237 231 223 220 219 217 217 216 216 217 216 215 213 214 214 214 216 216 217 219 220 218 211 204 205 207 209 208 203 202 204 198 187 180 172 168 178
282 21 359 336 323 311 297 290 267 226 167 176 231 236 179 192 194 165 162 148 116 90 69 65 57 52 44 36 30 18 10 1 350 349 353 -0 6 3 3 3 355 349 347 341 337 334 329 326 327 327 324 312 286 266 262 264 251 242 241 235 232 229 220 218 221 220 218 216 216 217 217 217 216 215 216 215 216 218 219 220 221 221 215 207 202 204 207 209 205 203 205 203 197 188 173 166 174
292 46 354 327 310 298 292 272 252 265 95 151 230 262 207 198 191 169 179 174 135 100 60 55 48 43 37 31 27 19 12 2 348 345 345 349 358 359 356 355 351 343 338 334 329 324 322 321 321 322 320 316 305 275 260 265 257 240 237 235 233 232 226 220 220 222 222 220 218 219 218 218 218 218 218 217 217 218 220 222 221 222 219 212 206 205 205 207 206 204 205 206 204 195 183 178 174
337 28 339 319 304 288 283 264 254 309 76 150 210 271 267 218 173 162 180 193 166 101 54 50 40 34 30 26 22 18 14 4 351 344 339 340 347 353 353 347 343 338 332 328 324 320 316 314 311 312 312 308 308 294 270 267 265 248 238 236 235 235 234 231 226 224 225 222 219 219 220 219 220 220 219 219 219 218 219 222 221 220 221 216 211 211 208 204 204 204 205 206 206 199 193 189 179
340 356 328 309 293 280 271 262 256 86 186 179 126 316 287 192 145 162 191 206 194 73 52 48 34 27 25 19 14 12 10 4 356 344 335 334 337 342 346 343 337 334 331 325 320 317 312 310 309 305 307 304 302 300 284 270 267 264 247 235 234 235 236 239 238 232 228 226 224 222 221 222 221 220 220 220 220 218 218 221 222 220 220 219 214 215 214 206 203 202 203 204 203 198 194 193 186
328 331 307 269 257 254 251 261 259 165 225 201 70 3 309 147 139 167 204 213 198 50 49 43 27 20 19 12 6 3 1 -0 355 343 332 331 332 332 334 336 336 334 329 323 318 315 311 308 306 303 303 302 299 298 292 278 267 268 259 240 233 233 233 238 244 243 235 230 229 227 226 225 222 218 218 220 221 222 221 221 223 222 220 220 217 215 215 211 206 203 202 203 202 197 192 194 194
299 301 278 235 234 231 238 257 242 232 226 90 83 33 319 224 123 114 146 116 45 16 14 20 8 5 10 2 357 358 354 353 351 340 333 334 330 326 328 330 331 332 328 323 318 314 312 308 302 300 299 297 295 291 291 286 267 260 260 249 235 230 230 233 238 241 240 236 231 229 228 227 224 221 217 216 218 221 222 221 222 222 220 220 218 215 215 212 209 207 204 203 205 202 195 195 197
278 281 268 244 229 216 232 219 220 257 326 91 104 42 285 257 81 80 115 105 61 15 359 360 353 353 358 351 350 354 350 349 347 338 335 337 330 325 327 325 325 328 326 323 321 315 310 306 302 299 297 296 293 288 284 284 273 259 258 256 244 232 227 229 233 236 238 240 235 230 229 227 226 224 218 214 213 214 218 220 220 220 220 219 217 215 216 214 212 211 208 205 205 205 200 195 197
287 286 273 257 235 219 239 225 236 279 58 89 88 317 272 252 80 101 130 118 65 27 2 352 349 348 348 345 346 348 347 347 342 338 339 335 329 327 325 323 323 323 321 318 317 315 309 304 301 298 297 296 294 290 282 276 273 265 258 256 253 243 231 227 230 232 231 234 236 233 230 228 228 228 223 217 212 210 214 219 219 218 218 217 215 215 216 215 213 213 213 209 206 205 203 197 197
319 322 308 289 277 260 259 260 277 290 82 96 121 259 271 46 89 113 128 122 80 27 357 351 346 342 344 342 341 343 345 343 339 339 337 330 327 326 323 322 321 318 316 315 312 312 308 302 299 295 294 295 293 290 285 274 266 262 259 255 253 251 243 231 225 226 227 228 233 234 234 232 230 231 228 223 217 212 213 217 218 218 217 214 213 213 216 215 214 216 216 212 209 207 204 200 198
314 331 307 301 329 320 296 311 320 315 341 62 169 220 317 357 103 122 121 131 154 323 339 344 339 341 345 339 339 344 342 339 339 338 332 327 326 324 322 321 319 316 314 312 310 308 304 300 297 294 291 291 290 287 283 277 266 257 256 254 250 249 249 241 232 229 228 229 231 231 235 237 234 232 232 230 226 217 213 213 214 217 219 218 215 211 213 214 213 216 219 216 212 209 206 203 201
309 316 290 305 353 329 311 345 357 332 310 298 173 250 336 69 118 121 125 173 211 327 337 339 340 344 344 339 341 343 339 337 337 333 329 328 326 323 322 321 318 316 313 309 307 305 302 299 296 292 290 287 285 283 279 276 269 258 250 250 249 246 247 246 240 235 232 231 231 229 231 235 235 233 233 234 233 225 216 210 211 216 217 217 216 211 209 211 211 212 216 216 213 212 208 204 204
304 303 321 15 340 310 303 301 79 266 271 291 333 295 315 122 130 127 132 260 338 345 342 341 342 341 339 340 342 339 337 336 334 330 327 327 326 323 322 321 318 316 313 308 305 303 300 298 295 292 290 285 282 279 275 272 267 261 253 247 246 245 244 243 240 239 237 234 233 231 230 231 231 231 232 235 235 230 223 213 211 216 215 211 211 207 205 207 208 209 211 213 212 213 212 209 208
324 2 9 341 284 288 299 283 269 277 285 310 316 309 314 302 123 120 75 358 353 343 342 340 338 339 338 339 338 335 335 333 329 327 325 327 327 325 323 321 319 316 312 308 304 302 299 296 294 292 289 286 283 279 274 270 264 260 255 248 243 242 241 240 238 238 239 237 235 234 232 231 230 230 231 234 236 235 231 221 214 215 214 212 212 208 204 202 203 206 208 209 211 213 215 214 211
1 33 12 307 282 309 294 289 316 311 307 310 306 316 316 315 19 30 359 354 346 338 341 340 338 340 340 337 335 334 334 331 328 326 326 328 325 324 322 320 317 315 312 308 304 302 299 296 293 290 288 285 283 280 273 268 262 257 254 248 244 240 237 238 236 234 234 235 235 234 235 233 231 229 228 231 236 238 235 228 222 217 213 214 215 213 209 204 200 203 206 207 208 211 215 215 212
29 187 120 341 327 331 326 322 316 308 307 309 311 318 329 25 43 16 356 349 341 339 339 336 336 338 337 336 334 333 333 331 329 327 326 326 324 323 323 320 318 316 313 309 305 302 298 296 292 288 286 284 282 279 274 268 261 255 252 248 245 241 237 235 233 231 230 230 232 233 234 233 230 229 226 226 231 235 234 231 228 223 218 216 215 213 211 210 205 202 205 206 206 209 214 215 214
356 333 21 5 335 293 296 291 319 321 307 310 314 305 323 53 61 17 356 346 339 338 333 330 333 335 335 335 332 331 331 329 329 327 324 324 324 323 322 321 318 316 313 310 307 303 299 295 292 288 285 282 280 277 274 269 263 256 251 247 244 241 238 236 232 230 228 228 229 229 231 231 229 228 225 221 222 227 230 229 228 226 223 219 216 214 212 214 213 207 204 206 207 210 214 216 216
351 349 -0 358 350 307 289 264 68 338 299 310 314 299 318 61 67 13 354 342 334 332 330 331 332 333 333 332 332 331 329 328 328 325 323 322 322 322 322 321 318 315 314 311 308 304 300 296 292 287 283 280 278 276 272 269 266 259 252 248 245 241 238 235 232 229 227 227 227 227 228 227 226 224 221 218 217 219 222 224 226 227 226 221 218 216 213 212 216 214 208 206 207 209 212 213 215
Height
787 788 787 788 787 787 786 783 791 786 787 792 780 777 769 764 767 767 772 769 772 765 758 761 759 762 766 767 765 762 762 765 767 770 768 754 747 749 749 751 753 754 756 759 761 764 767 769 771 771 773 774 775 776 778 779 782 783 785 787 788 790 792 794 796 797 798 800 802 803 805 806 807 809 811 812 813 815 815 816 817 818 819 820 821 822 823 824 825 825 825 826 826 826 826 827 828
788 788 786 788 786 787 783 781 792 786 789 795 778 772 765 763 770 771 770 767 769 763 759 761 760 762 762 761 762 765 763 756 755 755 749 743 746 747 749 751 753 755 756 758 760 764 767 769 771 772 774 775 776 778 779 781 782 784 786 787 789 791 793 795 796 798 799 801 802 803 805 806 808 810 811 813 814 816 816 817 818 819 820 821 822 823 824 825 826 826 826 827 827 827 828 828 829
788 787 787 788 785 784 780 784 793 786 788 791 774 761 760 769 771 768 766 765 765 761 762 762 762 762 762 765 763 766 763 750 748 748 745 743 744 745 749 751 753 756 757 759 761 764 767 768 770 772 774 776 777 778 780 782 783 785 787 788 790 792 793 795 797 799 800 802 803 804 805 807 809 810 812 813 815 816 817 818 819 820 821 823 824 824 825 826 827 827 828 828 828 828 829 830 830
786 786 786 784 785 785 784 788 788 783 784 781 770 759 763 770 767 766 767 766 764 763 765 764 766 759 761 769 760 761 760 751 747 746 747 744 746 750 752 752 753 756 757 760 761 764 766 767 770 772 775 776 778 780 781 783 784 786 788 790 791 793 794 796 798 799 801 802 803 805 806 808 809 811 813 814 816 817 818 819 820 821 822 824 824 825 826 827 828 828 829 829 829 829 830 831 831
786 786 785 782 784 784 782 785 783 782 780 771 767 766 769 769 767 770 768 767 764 765 766 767 770 759 759 764 759 763 758 750 746 746 748 746 750 755 756 756 754 756 758 760 762 765 766 768 770 772 775 777 779 781 783 785 786 788 789 791 793 795 796 797 798 800 802 803 804 805 807 809 810 812 814 815 817 818 819 820 821 822 823 825 826 826 827 828 829 829 830 830 830 830 831 832 832
786 785 784 781 780 779 781 785 783 780 772 765 766 769 772 769 770 772 768 766 764 764 765 767 769 766 765 759 756 759 754 754 751 750 753 751 753 755 758 758 755 757 758 760 763 765 767 768 771 773 775 778 779 781 784 787 788 789 791 793 795 796 798 799 800 801 803 804 805 806 808 810 812 813 814 816 818 819 820 821 822 823 824 826 827 827 828 829 829 830 830 830 831 831 832 832 833
784 784 783 783 781 780 786 785 779 772 767 768 769 770 772 770 770 770 769 768 765 764 765 767 767 771 769 759 757 753 751 757 755 756 757 754 755 755 758 758 755 757 759 761 764 766 768 769 772 775 776 779 781 782 784 788 790 790 792 794 796 798 800 801 801 803 804 806 806 808 809 811 812 814 815 817 819 820 821 822 823 824 825 826 827 828 829 830 830 830 831 831 831 832 833 833 833
784 782 780 783 783 784 785 780 772 767 769 771 770 772 772 770 769 770 771 769 768 766 766 766 766 774 767 760 763 752 752 758 757 759 757 755 755 755 756 756 756 757 759 761 764 766 768 770 773 775 778 780 783 785 786 789 791 792 792 794 796 798 800 802 803 805 806 807 807 809 810 812 814 815 816 818 819 821 822 823 824 825 826 827 828 829 829 830 830 831 831 832 832 833 834 834 834
782 781 781 783 781 782 782 776 772 769 771 773 771 772 771 770 770 771 771 768 768 768 767 765 766 773 765 762 763 750 751 758 758 758 756 755 754 754 754 755 756 756 759 761 764 766 768 772 773 776 779 782 785 787 788 790 792 793 794 795 796 798 801 803 804 805 807 809 809 810 812 813 815 816 817 819 820 821 823 824 825 826 827 828 829 829 830 830 831 832 832 832 833 834 835 835 835
780 780 781 782 780 783 782 774 771 772 772 772 771 771 770 770 770 771 771 768 768 768 767 765 765 769 766 765 761 751 754 757 757 757 755 754 752 753 753 754 756 757 759 761 764 767 770 773 775 777 780 783 786 788 790 792 793 795 796 797 798 799 801 804 806 806 808 810 811 813 814 815 816 817 819 820 821 822 823 824 826 827 828 829 830 831 831 831 832 832 833 833 834 835 835 835 835
780 779 778 783 784 783 779 770 770 772 772 773 771 769 769 769 771 770 770 768 767 768 766 764 766 767 766 764 758 752 755 757 757 757 755 753 752 752 752 754 755 757 760 762 764 767 771 774 777 778 780 785 787 788 791 793 794 795 798 799 800 801 802 803 806 808 808 810 812 815 816 816 817 818 820 821 822 823 824 825 826 828 829 830 831 832 832 833 833 833 834 834 835 835 835 836 836
780 779 780 785 782 777 774 772 772 773 774 774 771 768 768 769 771 771 770 769 767 767 765 765 766 766 766 764 757 750 752 757 758 757 755 753 752 752 752 753 755 757 760 763 765 767 771 775 778 780 782 786 788 790 791 793 795 796 798 800 801 802 803 803 805 810 811 811 812 815 817 817 817 818 820 822 823 824 825 826 828 829 830 831 832 833 833 834 834 834 835 835 836 836 836 836 836
779 777 780 782 778 775 778 779 777 779 776 771 770 769 770 770 772 771 771 770 767 768 766 764 763 763 766 764 755 750 753 757 758 757 755 753 752 752 753 753 755 757 760 763 765 766 770 774 778 780 783 786 788 790 791 793 796 797 799 800 802 804 805 804 805 810 812 813 813 815 818 819 819 820 821 823 825 825 826 828 829 830 831 832 833 834 835 835 835 835 836 836 837 837 837 837 837
777 776 777 779 780 780 781 780 778 781 774 768 771 771 772 771 771 771 771 771 767 767 765 761 761 763 765 763 757 754 756 758 758 758 755 754 752 752 753 754 756 758 760 763 764 766 768 772 777 780 783 786 788 790 791 793 795 798 799 801 803 804 806 806 806 810 812 814 815 816 818 820 821 821 823 825 826 826 827 829 830 831 832 833 834 835 836 836 836 836 837 838 838 838 838 838 838
776 775 777 779 782 781 781 780 780 782 773 770 774 773 774 771 770 771 771 773 768 763 763 759 759 764 765 765 764 758 757 759 759 758 757 755 752 753 754 754 756 757 759 761 763 765 767 771 775 778 783 787 789 791 792 793 795 797 799 801 803 805 807 807 808 810 812 814 816 817 819 821 822 822 824 826 827 828 829 830 831 832 833 834 835 836 837 837 837 838 838 838 838 838 838 839 839
776 775 779 781 783 782 781 780 782 783 774 770 773 773 776 771 768 771 769 770 769 761 762 762 760 764 764 764 764 759 759 760 759 758 757 755 753 754 754 755 756 757 759 760 762 764 766 769 773 776 782 786 789 791 792 794 796 796 799 801 803 806 807 808 810 811 813 815 817 818 820 821 823 824 825 827 828 829 830 831 832 833 834 835 836 836 837 838 838 838 839 839 839 839 839 839 839
776 776 781 781 782 782 780 779 781 781 774 771 771 772 777 774 768 767 765 766 768 764 763 763 760 761 761 760 762 760 760 760 759 758 757 756 754 754 755 756 757 759 760 761 763 765 767 768 771 775 780 785 787 790 792 794 796 797 798 800 803 806 808 810 812 813 814 816 818 819 821 822 823 825 826 827 829 830 830 831 832 833 834 835 836 837 838 838 839 839 840 840 840 840 840 840 840
778 779 782 781 781 781 780 780 779 778 777 774 771 772 777 777 770 765 766 765 765 765 762 761 758 757 757 759 762 761 761 761 759 758 756 756 754 754 757 757 759 761 762 765 767 768 770 770 771 774 779 783 786 790 792 794 796 798 799 800 803 805 807 811 813 814 814 816 818 820 822 823 824 825 826 827 829 830 831 832 833 834 834 835 836 837 838 839 839 840 840 840 840 840 840 841 840
779 779 781 781 781 780 779 780 778 779 779 776 773 773 776 776 771 768 770 767 765 766 762 760 760 758 755 757 761 762 761 761 759 759 757 756 754 754 757 758 759 759 760 764 768 770 773 774 775 776 779 783 786 789 792 794 796 799 800 801 803 804 807 810 812 813 814 816 819 821 823 823 825 825 826 827 828 829 831 832 833 834 835 836 836 837 838 839 840 841 841 841 841 841 841 841 841
780 779 781 782 782 780 779 779 779 779 778 778 775 774 775 773 771 770 772 770 766 765 764 764 765 762 758 757 760 761 761 760 760 760 758 757 755 754 756 757 759 758 758 759 763 768 773 778 780 779 781 783 786 789 791 794 796 799 801 802 804 805 808 810 811 813 814 816 819 821 822 823 825 825 826 827 828 829 830 832 833 834 835 836 837 838 839 840 841 841 841 842 842 841 841 841 840
780 779 781 782 782 780 779 778 779 779 778 779 776 776 775 771 770 771 772 771 765 763 764 766 766 763 760 758 759 761 761 760 760 760 759 758 757 756 756 758 760 761 762 763 764 767 771 778 784 784 784 786 787 790 791 794 796 798 800 802 804 806 808 809 810 812 813 815 818 820 821 822 824 824 826 827 828 829 830 832 833 834 835 836 837 838 840 840 841 841 842 842 842 842 841 841 841
780 781 783 782 782 781 778 777 779 780 779 778 777 776 775 771 771 771 772 772 766 764 765 765 764 762 761 761 761 760 761 761 761 761 760 759 759 759 759 760 762 763 765 766 767 768 769 775 784 788 789 789 789 791 792 794 796 797 800 802 804 806 808 809 810 812 813 814 817 818 819 820 822 824 825 828 829 829 830 832 833 834 835 836 837 838 839 840 841 841 842 842 842 842 842 841 841
782 782 783 782 782 782 778 777 779 780 780 779 777 775 775 774 772 771 772 771 765 764 765 764 762 760 759 761 762 762 762 762 763 763 762 761 760 761 762 763 764 765 766 767 768 769 768 771 781 788 792 792 791 793 793 794 795 797 799 801 803 806 807 809 810 811 813 814 816 817 817 819 821 823 824 827 828 829 829 830 832 833 834 835 836 838 839 840 841 841 842 842 842 842 842 841 841
781 782 783 781 782 782 779 778 779 779 780 778 775 775 775 775 774 772 771 767 764 764 764 763 760 758 758 759 762 762 763 764 764 765 764 763 763 763 764 765 766 766 767 770 771 771 769 770 777 785 792 794 794 794 794 794 795 797 799 800 802 804 806 808 810 811 812 814 815 815 817 819 820 822 823 825 827 828 829 829 831 832 833 835 835 837 838 839 840 841 842 842 842 842 841 841 841
783 783 782 781 780 779 778 778 778 778 778 775 775 776 773 773 774 773 771 768 767 766 763 761 759 759 759 760 762 762 764 765 766 767 767 767 767 767 767 768 769 769 770 772 772 773 771 768 772 781 788 793 795 795 794 795 795 797 798 799 801 803 805 807 809 810 811 813 814 815 816 818 819 821 822 823 825 826 828 829 830 831 832 833 835 836 837 838 840 841 841 842 842 842 841 841 841
784 784 782 780 780 778 779 777 777 777 775 775 777 775 771 772 774 772 770 771 769 765 763 761 761 762 762 763 764 765 767 768 767 768 769 770 769 769 770 771 771 771 774 776 773 772 771 768 770 778 784 789 793 795 795 795 796 797 797 798 800 802 804 806 807 809 810 812 813 814 815 817 818 820 821 822 823 824 826 828 829 830 831 832 834 835 836 838 839 840 841 841 842 841 842 841 841
783 782 781 780 780 779 779 777 777 776 774 776 778 774 772 772 774 773 771 771 768 765 764 763 763 765 765 765 767 768 769 770 770 771 771 771 771 771 771 773 774 774 776 778 775 773 772 769 770 778 784 787 790 792 796 797 797 797 797 798 799 800 802 804 806 807 809 811 812 813 814 816 817 818 819 821 822 823 824 826 828 829 830 831 833 834 836 837 838 839 840 841 841 841 842 841 841
782 782 779 778 778 778 778 777 778 776 774 775 776 775 772 771 776 777 774 771 768 767 767 766 766 768 767 767 769 770 771 772 773 773 773 773 772 772 773 773 774 775 775 776 776 776 774 769 771 778 784 788 790 790 794 798 799 798 797 797 798 799 800 802 804 806 807 809 810 812 813 814 816 817 817 819 821 822 823 825 827 828 829 830 832 833 835 835 837 838 839 840 840 841 842 841 841
781 781 780 776 775 778 777 777 778 776 775 774 775 777 775 775 781 779 774 771 769 769 769 769 769 770 770 769 770 772 773 774 774 774 775 775 775 774 775 775 774 774 774 776 776 777 775 771 773 779 783 787 790 791 793 796 799 800 798 797 797 798 799 800 802 804 806 808 809 811 812 813 815 816 816 817 819 821 822 824 825 826 828 829 830 832 833 835 836 837 839 839 840 841 842 841 841
779 777 780 778 777 779 777 777 777 774 775 775 777 782 782 782 782 779 776 773 771 772 772 771 771 772 772 772 772 774 775 775 775 777 777 776 777 777 776 776 775 774 774 776 776 776 776 773 774 779 782 784 787 790 792 793 798 801 801 798 796 796 798 799 801 803 805 806 808 810 811 812 814 815 815 816 818 820 821 823 824 825 827 828 829 830 832 834 835 836 838 839 840 841 841 841 840
777 777 780 779 784 782 775 778 778 775 775 773 776 782 784 786 783 780 778 775 774 775 775 775 774 774 774 774 774 775 776 777 778 778 778 777 777 778 778 778 777 777 776 777 777 777 778 775 774 778 781 782 784 786 788 790 794 800 803 799 796 795 796 797 799 801 804 805 807 808 810 811 812 813 814 815 817 818 820 821 822 824 825 826 828 829 831 833 834 836 837 838 839 840 840 841 840
777 784 785 780 785 783 775 778 779 779 777 772 777 781 783 788 786 782 780 777 777 778 778 779 778 777 776 776 776 777 777 778 779 779 779 778 777 777 777 778 779 779 778 777 778 779 780 777 775 777 779 781 783 785 787 788 790 796 801 800 797 794 794 796 798 800 802 804 806 807 809 810 811 812 812 814 816 817 818 820 821 822 823 825 827 828 830 832 833 834 836 836 837 838 839 840 840
778 784 788 783 784 785 780 778 777 779 778 773 776 780 784 790 787 784 782 780 779 780 781 781 781 780 779 779 778 778 779 779 779 779 779 777 776 775 775 776 777 778 778 777 778 780 781 779 776 776 778 780 783 785 787 788 788 792 798 801 800 797 794 795 796 798 801 803 804 806 807 809 810 811 811 812 814 815 817 818 819 820 821 823 826 827 828 830 831 833 834 835 836 837 838 839 840
785 784 786 783 782 785 784 781 777 777 778 776 775 780 788 790 787 786 783 782 781 782 784 782 782 782 781 782 781 781 781 781 782 781 781 779 777 775 774 774 773 774 774 774 776 778 780 780 776 775 777 779 782 784 786 787 787 790 797 801 799 797 795 794 795 797 799 801 803 804 806 808 809 810 810 811 812 813 815 816 817 818 820 822 824 826 827 829 829 831 833 834 835 836 837 838 839
793 790 788 785 782 781 782 782 780 778 779 778 779 786 791 789 788 788 785 783 783 784 784 784 783 783 783 783 784 784 783 784 785 784 784 782 779 776 774 774 772 771 771 772 773 775 777 779 776 775 777 778 780 783 785 787 788 792 797 799 797 795 794 792 793 795 797 799 801 803 804 806 808 808 809 810 810 811 813 814 816 817 819 821 823 824 826 827 827 829 831 833 834 836 837 838 839
793 790 789 788 785 780 779 781 780 780 782 780 783 789 789 789 790 789 787 785 785 785 785 784 784 784 784 784 785 786 786 786 787 787 786 784 782 779 776 775 774 772 771 770 770 770 772 775 775 775 777 779 780 782 785 788 790 792 795 796 794 792 791 790 791 793 795 798 799 801 803 804 806 807 808 809 810 810 812 813 814 815 817 819 821 823 824 826 826 827 829 831 833 834 836 837 838
790 789 786 782 782 780 777 780 781 780 784 783 784 786 787 790 792 789 788 787 787 788 787 786 786 785 785 786 786 787 787 788 788 788 787 786 784 782 780 777 776 774 773 771 770 769 769 771 773 775 777 779 780 782 785 788 791 792 792 791 789 787 786 787 789 791 794 796 797 799 801 802 804 806 807 808 809 810 811 811 812 813 815 817 819 821 823 824 825 826 827 829 831 833 835 836 837
789 786 783 777 777 779 777 781 783 780 784 786 784 786 789 791 792 790 789 790 792 791 791 791 789 788 787 787 787 787 787 788 788 789 788 787 787 785 783 780 778 777 776 776 775 774 773 770 771 774 777 779 780 781 784 786 787 788 787 785 784 783 783 785 787 789 792 794 796 797 799 800 802 804 806 807 808 809 810 810 810 810 812 815 817 819 821 823 824 825 826 827 830 832 833 834 836
786 781 780 779 777 779 780 782 783 781 785 786 783 788 792 791 791 792 791 793 795 793 792 793 792 791 790 789 789 788 788 788 788 789 788 788 788 787 785 784 782 781 780 779 778 778 778 776 774 774 776 778 779 779 779 781 781 781 782 782 782 782 782 783 786 788 790 792 794 795 797 798 800 802 804 806 807 808 809 809 809 809 810 812 815 818 819 820 822 824 825 826 828 830 832 833 834
783 781 783 783 781 784 785 782 782 782 784 784 782 788 793 792 792 792 792 792 793 793 792 792 792 793 792 791 791 789 788 788 788 788 788 788 788 788 787 786 785 783 782 782 781 781 781 781 780 778 777 777 777 777 776 777 778 779 780 780 781 781 781 783 784 787 788 790 792 793 795 796 798 800 802 804 805 806 807 808 809 808 809 810 813 816 818 819 820 822 824 825 825 827 830 831 833
783 784 788 788 785 787 786 782 783 783 784 782 781 791 796 793 793 794 792 790 791 791 791 792 792 792 793 792 792 791 789 789 788 787 788 788 788 789 789 788 787 785 784 783 783 783 782 782 782 781 779 778 776 776 775 776 777 778 779 780 781 781 781 782 783 784 786 787 789 790 792 794 796 798 799 802 803 804 805 806 808 808 808 809 811 814 816 818 819 820 823 824 824 825 827 829 831
789 787 789 790 789 787 786 784 784 786 789 784 783 798 804 792 789 793 791 789 791 791 790 792 792 791 792 792 792 792 791 790 789 787 787 788 788 789 789 789 788 787 786 785 784 783 783 782 781 780 779 777 776 775 775 776 777 777 778 779 780 779 779 780 780 781 783 785 786 788 790 792 793 795 797 799 801 802 804 805 806 807 807 807 809 811 814 815 817 818 820 822 823 823 825 827 829
795 791 790 789 788 786 785 784 785 787 790 785 780 795 805 795 789 791 790 788 790 791 791 792 792 792 792 792 793 792 792 792 789 787 786 787 788 788 788 788 788 788 787 786 785 783 783 782 781 780 778 777 776 775 775 775 776 776 776 777 778 778 777 777 778 780 781 782 784 786 788 789 791 792 794 796 798 800 802 803 804 805 805 806 807 808 810 812 814 816 818 820 821 822 823 824 827
793 790 791 790 786 786 784 782 782 782 785 786 780 784 795 795 790 787 787 789 791 791 793 793 792 793 794 793 793 793 793 793 790 789 786 785 787 788 788 788 787 787 786 785 785 784 783 782 781 780 779 777 775 774 774 774 774 774 774 775 776 777 776 776 777 778 780 781 782 784 785 786 788 789 791 793 795 797 799 800 801 803 804 804 805 806 808 809 812 814 816 818 819 820 821 822 824
790 787 791 790 786 785 782 779 778 779 786 792 785 780 789 795 791 787 787 788 791 793 793 794 794 793 794 794 794 793 792 792 791 790 788 785 785 786 787 787 786 786 785 784 783 782 782 780 780 779 777 776 774 773 772 771 772 772 772 772 773 775 776 776 776 777 778 779 780 782 782 784 785 787 789 790 792 794 796 798 799 800 801 802 803 805 806 807 809 811 813 815 817 818 819 820 822
788 788 790 789 786 782 780 777 776 781 789 793 788 785 791 793 789 789 790 789 790 792 792 793 794 793 794 795 794 793 792 792 791 790 789 787 785 785 785 786 786 785 784 783 782 781 780 779 778 777 776 775 773 772 771 770 770 770 770 770 771 773 775 775 776 776 776 777 778 780 780 781 783 784 786 787 789 791 793 795 797 798 799 800 801 803 804 805 806 808 810 813 815 816 817 818 820
789 789 788 787 783 779 779 775 776 784 788 788 788 787 791 795 789 785 789 792 792 793 792 794 794 792 794 795 793 793 792 791 791 790 788 787 786 784 783 783 784 784 783 782 781 779 778 777 776 775 775 774 772 771 770 769 769 769 769 768 768 770 773 774 775 776 775 775 776 777 778 779 780 781 782 784 786 788 790 792 794 795 796 797 799 800 802 803 804 806 808 810 812 814 815 816 818
789 785 782 786 783 781 783 780 781 787 787 787 785 783 790 797 792 785 788 792 792 794 795 795 796 794 794 794 792 792 792 791 790 789 788 787 786 784 781 781 781 782 782 781 780 778 777 775 774 773 772 772 771 770 769 768 767 767 767 766 766 767 770 771 772 773 772 773 774 775 776 777 777 778 779 780 782 784 787 789 790 792 794 795 796 798 799 800 802 804 806 808 810 811 813 814 816
787 782 783 790 789 792 794 787 784 783 783 785 782 785 789 786 784 785 788 791 793 795 795 795 795 795 794 793 791 791 790 790 789 788 788 787 786 784 781 779 778 778 779 779 779 778 776 774 772 770 769 769 769 768 767 766 765 765 764 764 764 764 766 767 768 769 769 771 772 773 773 774 775 776 776 777 779 780 782 784 786 788 790 792 793 795 797 798 800 802 804 805 807 809 811 812 813
791 788 791 794 794 803 802 789 785 784 783 782 780 787 787 778 781 785 786 792 794 794 793 793 793 793 792 791 789 789 789 789 788 787 787 786 785 784 782 780 778 776 776 776 776 776 775 774 771 770 768 766 766 765 765 764 763 763 762 762 762 762 762 763 764 765 766 768 769 770 771 771 772 773 774 775 776 777 778 779 782 784 786 789 791 793 794 796 798 800 802 803 805 807 808 810 811
796 792 793 792 793 805 805 794 790 789 784 780 783 789 783 780 787 786 785 791 792 792 791 790 790 789 789 789 787 788 788 787 787 786 786 785 784 783 782 780 779 776 774 773 773 773 773 772 771 769 767 765 764 763 762 762 761 761 760 760 760 760 760 760 761 762 763 764 766 767 768 769 769 770 771 772 773 774 775 776 778 781 784 787 788 790 792 794 796 798 800 801 802 804 806 807 808
800 792 793 796 797 801 803 802 802 801 795 785 784 783 774 777 785 782 786 791 788 789 789 788 789 788 788 789 787 788 787 786 785 785 784 783 783 782 781 780 778 776 774 772 771 770 769 769 768 767 766 764 762 761 760 759 759 759 758 758 758 758 758 758 758 759 759 761 762 763 765 766 767 767 768 769 770 772 772 773 775 777 781 784 785 787 789 791 793 795 797 799 800 802 803 804 806
803 800 802 802 800 799 801 806 807 808 804 789 782 780 769 773 786 785 787 789 786 788 790 789 791 790 790 790 789 789 788 786 785 783 782 781 781 780 779 779 777 775 774 771 769 768 766 765 764 764 763 761 760 759 758 757 756 756 755 755 755 755 755 755 755 756 756 758 759 760 761 762 764 764 765 767 768 769 770 771 772 773 776 778 780 781 784 787 790 792 794 795 797 799 800 802 803
805 807 808 803 802 802 801 804 802 799 797 786 780 783 777 775 784 786 785 789 791 791 791 792 792 791 792 791 790 789 787 786 786 783 782 781 781 780 778 777 776 775 773 770 768 766 764 762 761 760 759 758 757 756 755 754 754 753 752 752 752 752 752 752 752 753 754 755 755 756 757 758 759 761 762 764 765 766 767 768 769 771 772 775 776 778 779 782 785 787 789 791 793 796 797 799 800
806 807 807 807 810 807 802 804 805 801 800 791 780 779 777 775 781 786 788 792 795 793 792 793 793 793 793 791 790 788 786 786 785 783 783 782 781 779 778 776 774 773 771 769 767 764 762 760 759 757 756 754 753 753 752 751 750 750 749 749 749 749 749 749 749 750 751 751 752 753 754 755 756 758 759 760 762 763 764 766 767 769 770 772 774 776 777 778 779 782 785 787 789 792 794 796 796
808 805 805 807 810 810 806 805 805 805 805 800 791 786 779 779 786 791 794 795 795 794 794 793 793 792 792 791 789 787 786 786 784 783 782 781 780 778 777 775 772 770 769 767 765 763 760 759 756 755 753 751 750 749 748 748 747 746 746 745 745 745 745 745 745 746 747 748 748 749 750 751 752 754 755 756 759 760 762 763 765 766 768 769 770 772 773 775 776 777 780 782 784 787 790 791 793
811 808 807 807 808 810 810 806 804 807 809 806 806 800 785 783 791 794 795 797 795 795 793 790 790 790 790 790 790 789 787 786 784 783 782 780 779 777 776 775 772 769 767 764 762 760 758 756 754 752 750 748 746 745 744 743 742 742 741 741 741 741 741 741 741 742 742 743 744 745 746 747 749 750 752 753 755 757 758 760 761 762 764 766 767 768 769 771 773 773 775 777 779 782 785 787 789
816 811 809 810 810 811 811 811 810 811 811 810 814 808 791 787 794 794 795 797 794 792 790 789 789 788 789 790 789 789 788 786 785 784 782 780 777 776 774 773 771 768 765 763 760 757 755 753 752 750 747 745 743 742 740 739 739 738 737 737 737 737 737 737 737 737 737 738 739 741 742 743 744 746 748 749 751 753 755 756 757 759 760 762 763 765 765 767 769 770 771 772 774 777 780 782 784